Wind_Speed
40 40 39 39 39 38 38 39 39 38 37 36 36 36 35 34 35 34 33 33 34 33 33 33 33 32 31 31 31 31 31 30 29 29 30 30 29 29 28 28 30 30 29 29 28 27 27 27 26 26 25 24 25 26 25 24 25 26 23 22 23 23 22 21 17 18 24 25 23 22 20 18 21 23 24 25 26 26 27 28 30 31 32 31 29
40 40 39 39 39 39 39 39 39 38 37 36 36 36 35 34 33 32 32 33 33 34 34 34 34 34 33 33 32 32 32 31 31 30 31 31 31 31 30 30 31 32 31 31 31 30 29 30 28 27 26 26 26 27 28 27 27 28 27 26 26 25 24 24 22 19 23 26 25 23 21 21 22 23 24 25 26 26 27 28 29 30 32 32 31
40 40 39 39 39 39 39 39 38 38 37 37 37 36 35 34 33 32 33 33 32 33 34 35 35 35 35 35 34 34 33 33 32 32 32 32 32 32 32 32 33 33 33 33 33 32 31 32 31 30 28 28 28 28 29 30 30 30 31 30 29 29 27 26 25 23 24 27 27 25 24 23 24 24 25 25 25 25 27 28 28 29 30 32 32
39 39 39 39 39 39 39 38 37 37 38 38 37 37 35 34 33 34 34 33 33 34 35 35 35 35 35 36 36 36 35 35 34 33 33 33 33 33 33 33 34 34 34 34 34 33 33 33 34 33 31 31 31 30 29 31 32 33 34 33 32 32 30 27 27 28 26 26 27 26 25 24 24 24 24 25 26 26 27 28 28 29 30 31 32
38 39 39 39 38 38 39 38 38 38 39 38 38 37 36 35 34 35 35 35 35 35 34 35 35 36 36 37 37 37 37 36 36 35 35 34 34 34 34 34 35 35 35 35 35 34 34 35 35 34 33 33 33 33 32 31 32 34 36 36 35 34 33 30 28 29 28 28 29 27 25 24 24 24 23 24 26 27 27 28 29 30 31 31 33
38 38 38 37 37 37 38 38 38 39 39 38 38 37 36 36 35 35 36 36 36 35 35 35 36 37 38 38 37 38 37 36 37 36 36 36 35 35 35 35 35 36 36 36 35 35 34 35 36 35 34 35 36 36 35 34 33 34 35 37 37 36 34 32 30 28 30 31 31 30 28 27 26 26 25 25 26 27 28 29 30 31 32 32 34
38 38 37 37 37 38 39 39 39 39 39 39 38 37 37 37 37 36 37 37 37 36 36 36 37 38 39 38 38 38 37 36 37 37 37 36 36 36 36 36 36 36 36 36 35 35 35 36 36 35 36 37 38 38 36 35 35 35 36 36 37 36 35 34 32 29 30 31 31 31 31 30 29 29 28 25 25 27 29 28 29 31 32 34 36
38 38 38 38 38 38 39 39 39 39 38 38 37 37 37 37 37 37 37 37 37 37 37 37 38 38 38 38 38 37 36 36 37 38 37 37 37 37 37 37 37 36 36 36 35 35 36 36 36 37 38 39 39 39 37 36 36 36 37 37 36 35 35 34 31 29 30 30 30 32 31 30 30 30 28 25 24 28 29 27 29 32 32 33 36
38 38 37 37 38 38 38 37 38 38 37 37 37 37 36 36 37 37 37 37 38 38 38 37 37 37 37 38 38 37 37 38 39 39 39 38 38 38 38 37 37 37 37 35 34 35 36 36 37 38 39 40 40 40 39 38 37 37 38 38 36 35 35 33 30 28 28 27 28 30 28 28 30 28 27 27 28 31 29 26 29 34 32 32 36
36 36 36 37 38 38 37 37 36 36 37 37 37 37 36 36 36 37 37 38 38 38 37 37 37 37 37 37 37 37 37 39 41 41 41 40 39 38 38 38 37 37 36 35 34 35 36 37 38 39 39 40 40 40 41 40 40 40 40 38 37 36 35 32 30 29 28 26 28 28 25 26 30 29 29 32 32 31 29 26 28 31 29 27 32
34 34 35 36 36 36 36 35 35 36 37 38 37 37 37 36 36 37 37 38 38 38 37 37 38 38 37 37 38 38 38 40 42 42 43 43 41 39 38 37 37 36 36 36 35 36 36 37 38 38 39 39 40 41 42 42 42 42 42 41 40 38 36 33 32 31 29 28 29 28 25 27 31 31 31 33 32 31 30 29 28 27 25 23 24
33 34 35 35 34 34 34 34 34 35 36 37 37 37 37 37 36 36 37 37 38 37 37 38 39 38 37 38 38 38 40 41 42 42 43 43 43 41 39 37 36 36 36 37 37 37 36 36 36 38 39 40 40 41 41 42 43 43 43 43 43 43 41 39 37 35 32 31 31 30 28 30 32 33 32 34 33 30 29 28 28 28 27 26 24
32 33 33 33 33 34 34 34 35 36 36 37 37 37 36 37 37 38 38 38 37 37 37 38 39 38 37 38 38 39 40 42 42 43 44 44 43 42 40 38 36 36 36 37 38 38 37 36 36 37 38 39 39 39 40 42 43 43 43 43 44 45 45 45 44 42 40 36 34 34 34 33 34 36 36 35 31 28 27 29 30 31 31 31 32
31 32 33 33 34 35 35 35 36 37 37 37 37 36 37 38 39 39 38 37 37 38 38 38 38 38 38 38 38 39 40 41 42 43 44 44 43 42 42 40 38 37 37 37 38 38 38 37 37 38 38 37 37 38 39 40 41 41 41 42 44 45 46 47 47 47 46 43 41 42 42 39 39 41 39 35 31 29 30 32 34 34 35 37 39
32 34 35 35 35 36 35 36 36 37 37 37 36 37 38 38 38 38 38 38 39 39 39 38 38 38 38 37 37 38 40 41 41 42 43 44 43 42 41 41 40 39 39 38 38 38 37 37 38 39 39 37 37 38 38 39 40 40 40 41 42 44 45 46 46 46 48 48 48 49 49 46 46 45 41 37 36 35 36 38 37 35 35 36 37
31 33 33 34 35 36 36 36 37 37 37 37 36 37 37 38 38 38 38 39 39 39 39 38 38 38 37 37 37 39 40 40 40 41 42 41 40 40 40 41 41 41 41 40 39 38 37 37 38 39 39 39 39 39 39 39 39 38 39 41 41 42 44 43 42 44 46 47 49 51 52 51 49 48 45 41 38 38 39 39 36 33 31 30 32
30 32 33 34 35 36 37 37 37 38 37 36 36 37 38 38 39 39 38 38 38 38 39 38 38 38 37 37 38 39 40 41 40 40 40 38 38 39 40 41 41 41 42 41 40 39 39 39 38 38 39 39 40 40 40 39 39 39 39 40 40 42 43 39 37 40 43 45 47 49 50 51 51 51 50 46 42 40 37 36 35 33 30 26 25
29 30 32 35 36 38 39 39 39 38 37 37 37 38 39 39 39 39 39 39 39 40 39 38 37 38 38 39 39 39 40 41 39 39 39 37 36 37 39 40 40 41 41 41 40 39 39 39 39 39 40 40 40 41 40 39 39 40 39 39 40 41 38 33 33 38 41 42 45 46 48 50 50 51 52 50 49 45 40 41 41 36 31 28 26
29 31 33 36 38 39 39 39 39 38 37 38 38 39 40 40 40 40 40 40 40 39 38 36 36 37 38 38 39 39 40 40 38 38 38 37 36 37 38 38 39 39 39 39 39 39 39 40 40 40 41 42 41 41 40 39 40 41 40 38 38 39 37 34 34 37 37 37 40 42 44 46 47 48 50 50 51 50 48 50 49 41 35 34 31
30 32 34 36 38 39 39 39 39 39 38 39 39 40 40 40 39 38 38 38 37 36 35 35 35 36 36 36 37 38 39 38 38 38 38 37 37 37 37 38 39 38 38 37 37 37 38 39 39 40 41 42 43 43 42 41 42 42 41 38 38 40 40 36 34 34 34 36 38 38 39 41 41 42 44 45 47 50 51 54 54 49 42 38 34
25 28 29 32 35 37 38 38 39 39 40 40 39 39 39 38 37 37 37 36 35 34 34 34 34 34 34 34 35 36 37 37 38 38 38 38 38 37 37 39 39 38 37 37 36 36 36 37 38 40 41 42 43 43 43 43 43 44 43 41 42 44 42 38 37 36 34 35 36 35 37 37 34 35 37 38 41 46 50 53 55 54 50 45 41
15 22 27 29 31 35 36 37 38 39 39 38 37 36 37 37 36 36 35 33 33 33 33 32 32 31 31 32 33 34 35 35 36 37 38 38 38 38 39 40 40 38 37 36 35 35 37 37 38 39 40 40 41 40 40 40 40 42 44 44 45 46 44 42 41 38 35 35 34 35 35 34 32 33 33 32 37 45 49 51 52 53 53 51 48
3 13 23 29 31 34 36 37 38 37 37 37 36 35 36 35 34 33 33 31 31 31 31 30 29 28 28 29 30 32 33 34 35 36 36 36 37 38 39 40 40 40 39 37 36 36 38 38 37 37 36 36 36 36 36 36 36 39 41 41 42 43 44 43 41 38 37 36 34 34 35 34 34 32 28 29 39 47 47 46 47 48 49 49 48
6 3 13 24 30 33 35 37 38 38 38 37 35 33 32 32 32 32 31 30 29 28 28 28 27 26 26 27 28 30 31 32 33 34 35 35 35 36 37 38 38 40 41 39 37 35 33 32 31 31 30 30 31 31 31 32 32 34 35 35 36 37 38 39 38 36 35 33 31 32 34 35 34 30 26 31 43 48 46 45 45 44 44 45 44
9 8 4 12 22 28 32 34 36 37 37 36 35 32 30 29 29 29 30 29 28 26 26 26 26 25 25 25 26 28 29 30 31 32 32 32 33 33 35 36 36 38 40 39 35 31 29 28 27 26 26 26 26 26 26 26 26 27 27 27 27 26 26 27 28 28 28 27 28 29 30 31 31 28 26 30 36 39 42 46 47 45 44 44 42
11 11 9 7 12 20 26 29 31 32 33 33 34 33 31 30 29 28 28 28 27 26 25 24 24 24 23 24 24 26 27 27 28 28 28 28 29 31 32 33 34 36 39 39 36 33 29 26 24 22 22 21 21 22 22 22 22 22 22 22 21 20 20 20 20 21 22 24 25 27 28 30 30 29 29 30 32 34 38 41 43 44 44 42 40
13 12 12 10 8 14 21 25 26 27 27 29 30 30 30 30 28 26 26 25 24 23 23 23 23 22 22 22 23 24 25 24 24 24 24 25 25 27 29 30 32 34 36 37 37 35 31 26 24 23 23 22 21 21 21 20 20 19 19 18 18 18 17 17 17 18 20 23 25 27 29 30 30 29 29 30 32 34 36 37 40 43 43 41 37
13 12 12 11 8 10 17 20 21 22 23 24 25 25 25 27 26 26 26 25 24 23 23 23 24 24 23 23 22 21 21 21 22 22 22 22 23 24 25 27 29 31 32 32 30 28 25 22 20 19 17 16 14 13 13 13 13 13 13 13 13 13 13 14 14 16 18 20 23 25 27 28 28 29 29 29 32 35 35 37 39 41 42 39 34
12 10 10 10 7 7 11 15 19 21 22 22 20 18 19 21 23 23 24 25 25 24 24 25 26 26 24 23 21 20 20 21 22 21 20 20 20 20 22 23 25 26 26 23 19 15 11 9 7 6 5 5 4 5 6 7 8 9 10 11 12 14 15 16 16 17 19 21 22 25 27 28 28 29 29 29 33 35 36 36 38 40 41 38 35
11 9 8 6 5 7 11 15 19 22 23 23 21 16 13 14 17 18 19 20 22 23 23 24 25 25 23 21 21 21 21 21 21 19 17 17 16 16 15 15 15 15 14 12 9 7 6 4 3 2 1 2 3 5 7 8 10 10 12 13 15 16 18 19 20 21 22 23 24 26 28 28 29 30 29 29 32 34 35 36 36 37 38 37 36
10 9 7 4 5 10 14 17 19 21 22 22 22 19 15 11 10 11 13 15 17 19 20 21 21 21 21 20 19 18 17 17 17 16 15 14 14 13 12 11 11 10 9 9 7 6 6 5 5 5 5 5 6 7 8 10 11 12 13 14 16 18 20 21 22 23 24 25 26 28 28 29 30 30 30 31 32 34 35 35 35 35 36 36 35
8 9 6 2 7 11 15 18 19 20 20 20 21 21 19 18 15 11 8 9 11 13 15 15 14 14 16 17 16 15 14 15 16 16 15 14 13 13 12 11 11 10 9 9 8 9 8 8 8 8 7 7 8 8 9 10 12 13 14 15 17 18 20 21 21 22 23 24 25 28 29 30 31 32 32 32 33 34 34 34 33 33 34 35 34
5 7 5 3 10 13 15 18 20 20 21 22 21 21 21 21 19 18 16 13 10 9 9 9 10 11 12 12 13 14 16 18 17 16 16 14 14 13 13 12 11 10 9 10 12 13 12 11 10 10 9 8 8 9 10 11 12 13 13 14 16 17 19 20 21 22 23 24 26 27 29 31 31 32 33 34 35 35 34 34 34 33 32 31 32
3 4 4 4 11 15 17 19 20 21 22 22 21 20 20 21 23 24 22 20 19 18 17 15 13 13 14 15 15 17 19 19 18 17 17 16 15 13 13 13 13 12 11 13 16 16 14 12 11 10 9 9 9 10 10 11 11 12 12 12 13 15 17 19 21 23 25 26 27 28 30 31 32 33 35 37 37 38 38 38 38 34 31 30 30
3 2 1 4 10 15 17 20 21 22 22 21 20 20 20 21 22 22 21 21 22 22 22 21 20 19 19 19 19 20 20 19 18 17 16 16 15 14 15 17 18 17 16 17 17 16 13 12 10 9 9 9 9 10 10 10 10 10 11 12 13 14 16 18 20 23 25 27 29 30 31 33 33 34 36 37 38 39 40 40 39 35 33 32 30
6 6 5 5 8 12 15 18 20 22 22 21 20 21 21 22 22 22 23 23 23 23 22 23 23 22 21 21 21 21 20 19 18 17 17 17 17 17 18 20 21 20 19 18 16 14 12 11 10 10 10 10 9 9 9 9 9 10 10 11 12 12 15 17 20 23 25 26 28 30 31 32 33 34 35 35 36 38 39 38 37 34 32 31 28
9 9 10 9 10 12 13 14 17 19 21 21 22 22 23 23 23 24 24 24 24 24 23 24 25 25 24 23 21 21 21 20 19 18 17 16 16 16 17 20 21 20 19 16 14 13 12 11 10 10 10 9 9 8 8 8 9 10 10 10 10 11 13 16 18 20 22 25 26 28 29 31 32 33 33 33 34 36 37 35 34 32 31 29 28
11 12 12 12 13 15 16 16 17 18 19 20 22 22 23 22 23 24 23 24 25 25 23 23 24 24 23 22 21 21 21 20 19 18 16 15 15 16 17 18 19 18 17 14 12 11 11 10 10 10 9 8 7 6 6 7 8 9 9 9 9 10 12 15 16 17 19 22 24 25 26 28 29 30 30 30 31 33 33 32 31 29 27 25 22
16 16 16 16 17 19 20 20 21 21 21 20 21 22 22 21 21 22 23 23 23 22 21 21 21 19 20 21 20 19 19 19 18 17 15 14 14 14 14 15 15 15 14 12 11 10 9 9 9 8 7 6 5 5 6 6 7 8 9 9 10 11 13 13 14 15 17 19 20 22 23 25 27 27 27 27 28 29 29 29 27 24 20 16 12
21 20 20 20 21 21 20 21 22 22 22 21 21 22 22 21 20 20 21 21 21 21 22 22 20 16 17 17 16 15 17 18 17 16 15 13 12 11 11 11 11 11 10 10 8 7 7 6 6 5 5 5 5 6 6 7 7 8 9 10 12 13 12 12 12 13 15 16 17 18 21 22 24 25 25 25 26 27 27 27 26 23 19 15 13
23 24 23 23 23 23 22 22 21 21 22 21 21 21 21 21 22 23 23 23 23 23 24 23 21 16 14 12 11 13 15 16 15 13 12 12 11 10 9 8 7 7 7 6 6 5 4 3 3 3 3 4 5 6 6 6 6 7 9 11 12 13 12 11 11 11 12 13 14 16 18 19 20 22 24 25 26 27 27 27 27 26 25 24 23
25 25 25 24 25 26 25 24 23 23 24 24 23 23 23 24 23 23 23 22 22 22 23 23 22 20 17 13 11 12 14 14 13 11 11 10 9 8 8 7 6 4 3 2 2 2 2 2 2 3 3 4 4 5 6 5 5 7 9 11 11 12 11 11 11 10 10 10 12 14 17 18 18 19 21 23 24 26 27 27 27 27 27 27 25
26 26 25 24 26 27 27 26 26 26 25 25 25 26 27 27 25 24 23 22 21 20 21 22 21 21 20 17 15 14 15 15 14 13 11 10 9 8 7 5 4 4 3 2 2 2 3 3 4 3 3 3 3 4 6 6 6 7 9 10 10 10 10 11 11 10 9 10 11 12 14 16 17 18 19 21 22 23 24 24 25 25 25 24 23
24 25 26 26 26 27 28 30 30 28 27 27 28 28 28 28 27 26 25 24 22 22 21 21 21 21 20 18 17 16 16 15 14 13 12 11 10 9 8 6 4 3 3 2 2 3 4 5 5 4 4 4 5 6 7 8 9 9 10 11 11 10 10 10 10 10 9 9 10 10 11 13 15 16 17 19 20 21 21 21 22 22 22 22 21
24 23 24 25 26 26 28 31 32 30 29 29 29 27 27 27 26 25 24 23 22 22 22 21 20 21 21 19 19 18 17 16 15 14 13 12 11 9 8 6 5 5 4 2 1 2 3 4 4 4 4 4 5 6 7 8 9 10 11 12 12 12 12 13 13 12 11 11 10 10 9 10 11 12 14 15 17 19 19 19 20 20 20 21 20
27 25 24 24 24 23 24 28 31 30 29 29 28 27 26 25 24 23 23 22 21 22 22 21 21 21 21 20 19 18 17 17 16 15 14 13 11 10 9 7 5 5 5 4 2 1 2 3 4 5 5 5 6 6 6 7 8 9 11 12 12 13 13 13 14 14 14 14 13 11 10 9 9 9 10 11 13 14 15 16 17 18 18 18 18
31 30 28 27 26 24 22 23 26 29 29 29 28 27 27 26 24 23 22 21 20 21 21 21 21 21 20 20 19 19 18 18 17 17 15 14 13 11 10 9 7 6 5 4 3 2 1 2 3 5 6 7 8 8 8 8 9 10 11 12 13 13 13 14 14 14 15 15 15 14 12 11 10 7 6 7 9 10 11 12 12 13 14 15 15
31 32 31 29 28 26 24 23 24 26 27 28 27 26 26 26 26 25 23 21 21 22 22 21 20 19 19 19 19 19 19 19 19 18 17 16 15 14 13 12 11 9 8 8 7 6 5 5 4 4 4 6 7 9 10 11 11 12 12 13 13 14 14 14 14 14 14 14 15 15 14 13 12 8 5 4 4 6 7 8 8 9 9 10 10
29 31 32 31 29 27 26 25 25 25 26 26 27 27 26 27 27 27 26 24 23 23 22 21 19 19 18 18 18 18 18 19 19 18 18 18 17 16 16 15 14 13 12 12 12 12 11 10 10 9 9 8 8 8 9 10 12 13 14 14 14 15 15 15 14 14 14 13 13 13 13 12 12 10 7 6 4 3 3 3 4 4 5 5 4
30 31 32 32 31 29 29 28 27 26 27 28 28 28 28 28 28 28 28 28 28 27 26 24 22 21 19 18 17 18 18 18 19 18 18 18 18 17 17 17 17 17 16 16 16 16 15 15 14 13 13 13 12 11 10 11 11 11 12 12 13 14 15 15 15 14 13 13 12 12 12 11 10 10 9 7 6 5 4 4 3 2 2 2 3
31 31 32 32 32 31 31 30 27 27 28 29 28 28 28 28 28 28 28 29 29 29 28 28 27 25 23 21 19 19 19 19 20 20 19 19 19 18 18 18 18 19 19 19 19 20 20 19 19 17 17 16 15 13 12 12 12 12 11 11 11 11 12 13 14 14 13 13 12 12 11 11 11 10 10 8 6 5 5 5 5 5 5 7 8
Wind_Direction
200 202 203 204 206 207 209 211 212 214 215 215 217 219 220 220 221 222 222 224 225 225 228 231 232 234 235 236 236 236 237 236 236 236 236 238 240 241 242 241 242 244 247 249 248 248 249 251 254 252 250 248 247 246 245 243 243 246 250 255 256 256 253 241 234 255 265 265 265 266 263 259 257 257 259 261 262 261 260 261 261 260 257 256 256
200 202 202 204 206 207 209 210 212 213 214 216 218 219 220 221 221 222 222 224 226 226 229 230 232 233 234 235 236 236 237 237 236 236 235 236 238 239 240 240 241 243 245 247 247 247 247 249 252 253 251 251 251 249 248 245 244 246 249 252 256 257 256 248 241 248 261 264 263 264 261 255 254 256 258 259 261 261 260 260 261 261 259 257 255
200 201 202 204 206 207 209 210 211 212 213 216 218 219 221 221 221 222 222 224 226 227 229 230 231 232 233 234 236 236 236 237 236 236 236 237 237 238 239 239 240 241 242 245 245 245 245 246 249 252 251 251 252 252 251 248 247 248 250 251 255 257 259 256 248 246 255 263 264 263 262 258 258 261 262 262 262 262 262 263 263 263 261 257 254
200 200 201 204 206 207 208 209 210 211 213 215 218 219 220 221 221 222 223 223 225 227 229 230 231 232 233 233 234 234 234 235 236 236 237 238 238 238 239 239 239 240 241 242 243 243 243 244 247 249 249 249 251 253 252 251 250 250 252 253 255 257 259 259 255 251 253 261 265 265 265 264 264 266 265 264 262 262 262 263 263 262 261 257 254
199 200 202 203 204 206 207 208 209 211 213 215 217 218 219 220 221 222 222 223 225 226 227 228 230 231 233 233 233 233 233 234 235 235 236 237 239 240 240 240 240 240 241 242 243 243 243 244 246 247 246 246 248 250 251 252 251 251 252 254 255 257 258 259 258 255 253 257 264 267 268 268 268 268 266 264 264 263 262 261 260 260 259 256 253
199 200 202 203 204 206 207 208 209 211 213 214 216 217 217 218 220 221 222 223 224 225 226 227 228 230 233 233 233 233 234 234 235 236 236 236 237 239 240 240 241 241 242 242 243 243 244 245 246 246 245 245 247 248 249 250 251 251 252 253 255 256 257 257 256 255 253 256 262 267 268 268 268 269 268 266 265 264 262 262 260 257 255 253 252
199 200 202 203 204 206 207 208 210 211 213 215 216 217 217 218 219 220 222 222 223 224 225 227 228 230 232 233 233 234 234 234 236 236 236 236 236 237 238 239 240 241 242 243 243 243 245 246 246 246 245 246 248 249 249 249 250 251 252 253 254 254 255 255 254 252 253 256 260 264 267 268 268 268 269 268 265 263 261 258 257 256 252 250 251
198 200 201 203 205 207 208 209 210 212 213 215 216 217 218 218 219 220 221 222 223 224 225 227 229 231 232 233 234 235 234 235 236 236 236 236 236 237 238 238 239 241 242 243 243 244 245 246 247 247 247 248 250 250 250 249 250 251 253 254 254 254 254 254 253 252 251 253 256 261 264 267 267 268 268 264 259 258 256 252 253 256 254 251 252
198 199 200 203 205 207 208 209 211 212 213 214 216 217 218 219 220 221 221 222 223 225 226 227 229 231 233 234 235 235 234 235 236 236 236 236 236 237 237 238 239 240 242 243 244 244 246 247 248 248 249 251 252 253 253 252 251 251 254 254 253 253 253 254 253 252 252 252 255 258 261 263 265 265 263 259 255 258 259 253 251 255 256 255 255
197 198 201 204 206 207 207 208 210 211 212 213 215 216 217 219 220 221 222 223 224 225 226 227 229 231 233 234 235 235 235 236 237 237 237 237 236 236 236 238 239 240 241 242 243 244 245 247 249 250 252 253 254 255 256 256 255 254 256 255 253 252 252 252 252 252 252 252 254 256 258 259 261 261 261 261 261 261 259 253 252 255 256 256 258
196 198 202 205 206 206 207 208 209 210 212 213 214 215 216 218 220 221 222 223 224 225 225 226 228 230 232 234 235 235 235 237 238 238 239 239 237 236 236 237 238 239 240 241 242 244 245 247 249 251 253 254 255 256 257 258 258 258 258 257 256 254 252 251 251 252 251 252 254 255 254 257 261 261 261 264 264 261 258 254 253 254 251 249 256
196 199 203 205 205 205 206 207 208 210 212 213 214 215 215 217 219 221 222 223 223 224 225 226 228 230 231 233 235 235 237 239 239 240 240 240 239 237 236 237 238 239 240 241 243 244 245 246 248 250 251 252 254 256 257 259 259 260 260 260 259 257 256 254 253 252 252 252 254 254 252 255 261 261 261 262 262 260 259 257 254 252 250 247 249
195 199 203 203 203 204 205 206 208 210 212 213 214 214 214 216 218 220 222 223 224 224 225 227 229 229 230 232 234 235 237 239 240 241 242 242 241 239 237 237 238 239 240 242 243 245 245 246 247 249 251 252 253 254 256 258 260 260 261 260 259 258 257 256 255 255 254 254 255 257 256 256 259 260 261 262 260 258 258 256 254 251 248 248 250
194 199 202 203 203 204 205 205 207 210 212 213 213 213 214 216 218 219 221 223 223 224 225 227 229 230 230 231 233 236 238 239 241 241 242 243 243 241 239 238 239 241 242 243 244 245 246 246 247 249 251 251 251 253 254 256 258 259 260 259 259 259 258 256 255 255 255 253 254 258 260 259 259 262 264 263 260 257 256 256 256 252 251 254 257
194 199 202 203 203 204 204 205 207 210 212 212 212 213 214 216 217 219 220 221 223 224 225 227 228 230 231 232 234 237 239 240 241 242 243 243 243 242 241 240 240 242 243 244 245 246 247 247 248 250 252 252 252 253 254 255 256 258 258 258 259 260 259 257 256 255 255 254 254 257 260 261 261 263 265 263 261 260 261 261 260 258 257 259 260
195 199 202 202 203 204 204 205 207 210 211 210 211 212 214 216 217 218 219 221 223 224 226 227 228 230 231 232 233 237 239 241 241 242 244 244 243 242 241 240 241 243 244 245 246 247 247 247 248 250 252 253 254 254 255 256 256 256 257 259 260 261 261 260 260 260 260 258 258 260 262 263 264 264 264 262 261 262 263 263 259 255 254 255 255
196 199 202 203 204 205 205 206 207 209 210 209 210 212 214 216 217 217 218 220 222 223 225 227 228 229 230 231 232 235 239 240 241 242 243 243 242 241 240 240 240 242 244 246 247 248 248 248 248 249 251 253 254 255 256 255 254 254 256 258 260 261 262 262 264 265 265 264 264 265 266 267 266 266 265 262 260 260 259 257 254 250 246 248 253
199 200 202 205 206 206 207 207 208 209 209 209 210 213 215 216 217 217 217 218 221 223 225 226 228 229 229 230 232 234 238 240 240 241 243 242 241 241 240 239 240 242 244 247 247 248 249 249 249 249 250 252 254 255 256 254 252 252 253 256 259 260 261 263 263 265 265 265 266 266 267 267 267 267 266 263 261 258 253 252 254 250 243 244 250
206 205 205 207 209 209 208 208 209 210 210 210 212 213 215 217 218 217 217 218 221 223 224 225 227 228 230 231 232 234 237 240 240 240 241 241 240 240 239 238 239 241 244 246 248 249 250 251 251 251 252 254 255 256 256 254 252 252 253 254 257 260 263 264 263 263 263 263 263 263 264 265 265 265 266 265 262 259 254 253 254 250 245 247 250
214 212 210 209 210 211 210 209 210 211 211 213 214 215 216 217 217 217 217 218 221 223 224 225 227 229 230 231 233 234 236 239 240 241 241 241 240 239 237 235 237 240 242 245 247 248 250 250 252 252 254 255 256 256 257 255 255 255 254 252 255 261 266 267 265 265 265 265 265 264 264 265 264 263 264 264 263 261 258 256 254 250 247 250 253
220 219 216 212 210 212 212 212 212 213 214 215 215 216 216 216 216 216 216 217 219 221 223 225 227 230 231 231 232 234 235 237 239 241 242 242 241 240 238 236 238 240 242 244 245 247 249 251 253 254 256 258 259 259 259 257 257 256 255 254 258 264 267 268 269 270 269 269 270 269 268 267 264 262 261 260 261 262 260 258 256 253 248 245 245
222 222 220 217 213 212 213 214 214 215 216 216 215 215 216 216 216 216 215 216 217 220 222 224 227 230 232 232 233 234 235 236 238 240 241 241 241 241 240 241 242 242 242 243 244 246 249 252 254 257 259 261 263 263 264 263 262 260 260 261 264 268 268 269 271 272 272 273 273 272 271 269 265 262 260 258 261 263 261 259 258 256 253 248 245
242 222 219 218 217 214 213 214 214 215 217 217 215 215 216 215 215 215 214 214 216 219 221 223 225 228 231 232 233 235 236 238 239 240 241 241 240 240 241 243 244 243 241 242 244 246 250 252 254 257 259 261 264 266 267 268 267 266 268 269 270 272 271 269 270 272 273 274 273 272 272 271 267 263 258 258 264 266 264 264 263 261 260 258 253
4 282 220 217 217 215 214 214 214 215 216 217 216 216 214 213 213 213 213 213 214 217 220 221 222 225 229 230 232 234 236 238 240 242 243 243 242 242 243 243 244 243 242 243 245 247 250 252 254 256 258 260 263 265 267 269 269 271 274 275 275 276 274 273 273 275 274 275 275 274 274 275 274 272 265 263 269 271 271 272 271 269 267 266 262
359 352 294 226 220 217 215 214 213 214 214 215 215 215 213 211 210 211 212 211 212 215 217 218 219 222 224 227 230 232 234 237 240 241 243 244 244 245 245 246 246 244 243 243 244 246 248 251 253 255 258 260 262 265 268 270 272 275 277 279 282 284 284 285 285 282 279 279 280 279 280 283 286 288 285 280 279 278 277 276 276 273 270 268 265
353 348 339 291 237 222 217 214 213 213 212 212 213 214 213 211 210 209 209 210 211 213 214 215 217 219 222 225 227 230 234 235 237 239 240 241 242 243 244 245 245 244 243 243 243 244 245 248 251 253 256 260 263 266 270 273 277 281 284 289 296 301 303 304 302 295 290 288 288 288 289 292 293 294 294 292 286 280 277 277 276 274 272 269 265
353 344 335 320 277 231 220 215 211 209 208 208 211 213 213 212 211 209 208 208 209 211 212 213 214 215 218 221 224 228 232 232 231 233 234 235 237 239 240 241 242 242 243 244 244 244 246 249 253 258 262 265 268 271 274 279 283 288 292 297 303 307 311 313 311 305 300 297 296 295 296 297 297 295 292 288 282 277 275 274 272 272 273 271 266
349 341 331 323 297 240 223 215 205 199 199 201 204 207 209 211 211 211 211 210 208 209 209 210 212 214 215 216 219 221 224 225 227 229 232 234 236 236 237 238 239 241 243 245 247 249 252 255 258 261 264 267 270 274 279 284 289 295 302 308 314 319 324 326 322 316 311 306 303 302 301 300 298 296 292 287 281 278 276 272 269 270 272 271 266
345 341 331 320 295 240 216 205 195 188 184 184 186 190 198 205 208 211 214 214 213 213 213 214 218 219 218 217 215 212 214 222 226 227 229 230 232 235 236 237 238 239 240 243 244 242 240 238 240 247 259 271 284 299 308 311 317 325 334 342 346 349 351 349 343 334 326 319 312 307 305 303 300 297 294 288 283 282 280 275 272 272 272 269 265
342 339 329 308 266 213 194 188 185 180 175 171 166 161 167 186 197 202 208 212 214 217 219 222 226 226 222 217 216 217 223 227 224 219 219 220 220 222 224 222 221 221 217 213 205 192 177 158 137 107 59 32 15 8 4 358 354 354 355 358 1 0 358 355 350 341 334 328 322 316 312 308 304 301 298 292 289 289 286 281 276 273 271 268 265
339 333 326 290 219 193 182 178 175 171 168 165 159 149 137 137 157 179 194 203 209 213 217 222 227 228 225 219 215 216 224 224 212 202 198 195 191 189 186 183 181 179 179 176 163 150 145 131 110 94 81 68 50 33 25 18 12 8 4 3 6 5 1 357 353 346 340 335 330 324 319 314 309 307 304 299 296 294 291 287 281 274 271 269 267
335 326 324 260 195 185 176 170 166 162 159 157 155 150 137 121 109 112 144 182 198 206 213 218 220 221 222 221 217 208 196 188 183 178 175 172 172 172 170 169 168 165 169 170 152 134 129 124 109 94 81 69 55 41 34 29 24 19 12 7 7 6 3 358 353 347 341 336 331 326 323 320 316 313 310 307 302 298 293 289 285 279 274 271 269
336 322 321 199 179 175 169 165 163 161 158 156 154 152 146 135 119 106 104 115 132 146 160 177 188 188 189 196 201 191 173 163 161 161 160 158 158 157 154 150 148 150 159 157 139 125 119 112 102 89 77 66 56 48 45 40 32 25 18 9 4 2 0 358 354 349 345 339 334 329 326 323 320 318 316 312 307 302 296 292 288 282 278 275 272
346 318 309 196 177 172 169 167 164 161 159 158 156 153 150 145 137 126 116 111 108 107 109 117 130 140 144 148 154 154 149 147 147 147 146 143 141 143 143 139 134 136 143 139 128 119 112 104 96 87 78 70 64 58 53 46 36 29 20 11 5 3 3 4 1 355 350 345 339 335 331 328 325 323 320 317 313 307 301 296 291 283 276 275 276
40 14 355 180 175 171 170 168 164 160 158 156 155 151 146 142 138 132 125 119 112 107 107 111 117 123 127 131 134 135 134 135 135 135 137 138 139 143 142 133 125 122 122 120 115 111 107 101 95 91 86 82 77 67 57 47 39 32 24 17 15 13 11 9 4 358 352 347 343 339 337 334 332 329 326 321 316 311 305 300 295 287 278 274 274
68 75 87 125 152 157 161 162 161 160 157 153 150 145 140 135 130 124 120 118 115 113 113 114 116 119 121 123 125 126 126 126 126 129 134 137 140 143 138 127 120 117 114 112 110 108 105 102 100 98 94 90 83 72 62 52 45 40 32 25 21 16 11 6 360 355 352 348 345 343 341 339 338 336 333 327 320 314 311 306 301 293 282 277 275
80 87 97 113 129 136 141 147 150 150 148 144 141 136 131 128 125 121 119 118 116 114 113 112 112 113 114 116 120 122 123 124 126 129 132 133 136 137 131 125 122 119 116 113 112 110 106 103 103 102 99 94 86 76 67 58 48 39 32 26 20 11 4 358 354 353 353 352 351 349 346 343 342 340 337 332 326 321 319 316 311 303 292 284 279
92 98 106 114 122 124 124 124 126 127 127 127 127 126 123 122 121 119 117 117 116 114 113 112 111 111 112 116 121 122 122 123 124 123 122 122 123 123 123 124 123 121 117 116 115 111 108 105 106 104 99 92 83 71 61 53 41 29 20 14 5 355 351 350 351 354 356 355 354 354 350 347 346 344 341 337 332 329 329 327 323 316 308 299 292
96 103 110 114 116 116 117 116 114 111 110 110 113 114 113 112 114 115 115 114 112 109 109 110 110 113 118 122 124 124 124 122 120 118 116 113 112 115 120 125 125 122 119 118 114 108 104 104 105 103 95 82 65 47 36 32 25 13 4 358 353 352 355 357 355 355 357 356 356 357 355 353 352 350 347 346 343 342 342 341 339 335 331 327 327
102 105 109 112 111 111 113 114 114 114 114 114 113 113 112 110 111 111 109 106 101 100 102 103 106 117 129 132 130 128 125 123 121 119 114 108 105 107 113 122 127 127 123 117 111 106 104 103 102 98 84 60 36 26 22 18 13 6 0 0 1 1 6 8 3 358 358 357 357 358 359 0 2 1 360 359 358 358 360 0 0 2 6 16 37
110 109 110 112 111 108 105 104 107 113 115 114 112 110 110 110 111 109 105 102 99 99 98 97 98 109 126 136 135 127 121 119 120 118 111 105 99 95 95 102 115 126 127 119 108 103 101 98 88 70 53 32 19 20 19 13 10 10 8 8 7 7 10 15 13 8 5 4 5 6 7 10 13 11 9 10 11 12 15 17 18 20 25 33 45
115 112 111 113 113 109 102 98 100 105 108 106 105 105 106 107 107 106 103 101 99 97 95 91 92 99 107 116 125 123 114 110 111 110 106 103 98 92 87 83 82 90 107 114 107 99 84 60 35 23 21 17 13 13 8 359 1 10 11 10 11 12 16 20 20 17 17 19 19 18 19 24 26 22 18 19 20 21 24 28 29 31 34 38 45
114 111 108 108 108 107 105 103 101 100 99 98 99 103 106 106 105 103 101 98 95 92 88 85 87 93 97 102 113 115 107 101 99 96 94 96 95 90 86 81 74 69 53 32 24 15 10 8 357 346 346 354 353 349 345 343 347 355 358 359 0 2 7 13 16 18 22 23 24 27 31 33 33 30 27 27 28 30 33 36 37 38 41 43 47
102 103 103 103 102 102 105 106 103 99 97 98 97 97 100 101 100 99 99 96 93 90 86 82 83 88 90 93 98 99 94 91 90 88 86 86 83 77 73 70 69 63 44 20 4 0 0 359 350 337 327 324 321 320 324 328 331 333 336 338 337 337 339 345 350 354 359 3 9 19 28 31 32 34 34 34 37 40 41 42 42 44 48 51 52
89 89 92 95 95 96 101 104 104 102 100 98 96 93 94 94 94 94 95 93 91 91 88 84 84 85 84 84 85 85 82 82 82 80 78 75 70 66 63 60 57 55 48 34 336 322 329 332 330 321 307 301 303 306 312 317 317 316 317 318 319 320 321 322 322 323 325 331 339 351 6 19 31 39 41 43 47 49 49 49 49 51 54 57 58
89 84 81 81 82 83 88 96 100 100 97 94 92 91 91 90 90 92 92 91 90 91 89 86 84 83 81 80 80 78 76 75 73 70 68 66 60 56 53 49 47 48 48 50 51 311 291 289 289 285 280 279 282 286 294 299 301 302 303 304 305 306 308 308 308 308 310 314 319 326 339 355 13 32 46 55 60 60 57 56 55 55 57 59 61
92 90 85 82 79 76 75 81 88 91 92 91 89 87 87 88 89 89 89 87 88 88 86 84 82 81 79 77 76 74 73 72 69 66 63 60 55 50 46 41 37 33 29 31 40 41 345 305 293 284 279 278 278 279 283 285 285 287 289 291 293 295 295 295 297 298 300 305 309 312 317 326 337 359 36 59 68 73 73 70 66 65 66 69 73
92 93 92 89 86 82 77 76 78 81 84 85 84 82 82 83 83 83 82 82 83 84 83 80 78 77 75 73 72 71 71 70 68 65 62 59 55 52 48 44 42 38 31 26 25 21 14 5 354 337 316 299 288 284 283 282 281 281 283 283 285 288 289 290 293 295 296 299 302 305 309 314 317 323 341 11 40 64 75 77 79 82 81 80 85
88 91 92 90 87 83 80 78 77 77 79 81 81 80 79 78 78 79 79 78 77 78 78 76 74 71 69 67 66 66 66 66 64 62 61 60 58 55 52 50 49 46 42 37 33 28 22 15 9 3 358 349 333 313 299 291 285 283 283 283 282 282 282 284 290 294 296 298 301 303 307 309 311 312 315 318 325 348 19 36 59 82 89 86 91
88 88 89 90 89 87 85 83 81 80 81 81 80 79 78 78 77 77 76 75 74 73 72 71 70 69 66 63 61 60 59 59 59 59 59 59 58 56 55 54 53 52 51 48 44 39 34 28 21 14 8 3 356 346 335 326 315 303 296 292 288 283 282 282 284 287 290 293 296 299 301 303 304 307 312 315 314 311 312 318 326 327 313 298 285
88 88 88 88 89 89 88 86 84 83 83 82 80 79 78 78 76 75 74 72 71 70 69 68 69 69 68 66 64 62 60 59 59 60 60 59 58 58 57 55 54 54 55 54 52 50 46 43 40 35 29 23 16 8 359 353 345 336 326 318 308 298 291 289 287 285 285 286 289 291 293 295 296 298 301 307 311 308 303 302 303 301 296 289 282
Height
766 770 773 776 779 782 785 788 791 794 797 799 801 802 805 807 809 811 814 816 817 819 821 822 823 825 826 827 828 829 830 832 833 834 835 836 837 838 839 840 841 841 842 843 843 844 845 845 845 846 847 848 848 849 849 849 850 850 851 850 850 850 851 851 851 847 845 846 847 847 849 849 849 849 849 849 849 850 849 849 850 850 850 851 852
763 767 770 774 776 779 782 785 788 791 794 796 798 800 803 804 807 810 811 813 815 817 818 819 821 822 823 824 825 827 828 829 831 832 833 834 835 836 837 838 838 839 840 840 841 842 843 843 844 844 846 846 846 846 847 847 848 848 848 848 847 848 849 849 849 847 844 844 845 846 846 847 846 846 847 847 847 847 847 847 847 847 847 848 848
760 764 767 770 773 776 779 782 785 788 791 793 795 797 800 802 805 807 809 811 813 814 816 817 819 820 821 822 823 824 825 826 828 829 830 831 832 833 834 835 836 836 837 838 838 840 841 841 842 842 844 844 844 844 844 845 846 845 845 846 845 846 847 847 847 846 843 842 842 843 844 844 844 844 845 845 845 845 844 844 844 844 844 845 845
757 761 764 767 770 773 776 779 782 785 787 789 792 795 797 800 802 804 806 808 810 811 813 814 816 817 818 819 820 821 823 824 825 826 827 828 829 830 831 832 833 833 834 835 836 838 838 839 839 840 841 842 841 842 842 842 843 843 843 843 843 843 844 845 845 844 843 840 840 840 841 842 842 842 843 842 842 842 841 841 841 841 841 842 842
754 758 761 764 767 770 773 776 778 781 783 786 789 791 795 797 799 801 803 805 806 808 810 812 813 814 815 816 817 818 819 821 822 823 824 825 827 828 828 829 830 831 831 833 834 835 836 836 837 838 839 839 838 839 839 839 840 841 841 841 841 841 842 842 842 843 842 839 838 838 839 840 840 840 840 840 840 839 839 838 838 838 838 838 838
751 754 757 761 764 766 769 772 774 777 780 783 786 788 791 794 796 798 799 801 803 805 807 808 809 810 811 813 814 815 817 818 819 820 821 823 824 825 826 826 827 828 829 830 831 833 833 834 834 836 836 836 835 835 836 837 837 838 838 838 838 839 839 839 840 841 840 838 837 837 837 837 837 837 837 838 838 837 836 835 835 835 835 835 835
747 750 754 757 760 762 765 767 770 773 776 779 782 785 788 790 792 794 796 798 800 801 803 804 806 807 808 810 811 813 814 816 816 817 819 820 821 822 823 824 824 825 826 827 829 830 831 831 832 833 833 832 832 832 833 835 835 835 835 835 836 836 835 836 837 838 838 836 835 834 833 834 834 833 834 835 835 834 833 833 832 831 831 831 831
742 746 749 752 755 758 761 764 767 770 773 776 780 782 785 787 789 791 793 795 796 797 799 800 802 803 805 807 808 810 812 813 813 814 815 817 818 819 820 821 821 822 823 824 826 827 827 828 829 829 829 829 829 830 831 832 833 832 832 833 834 833 832 833 834 835 835 834 833 832 831 831 830 830 831 832 831 829 829 830 829 827 828 828 827
738 742 745 748 751 754 758 761 764 768 771 773 776 779 782 785 787 789 790 792 793 794 796 797 799 800 802 804 805 807 809 809 809 811 812 813 814 815 816 817 818 819 820 822 823 824 824 825 825 825 826 826 826 827 828 829 830 829 829 830 831 830 830 831 832 832 832 831 830 829 829 828 827 828 828 828 827 825 826 827 826 824 825 825 823
735 739 742 744 748 751 755 758 761 765 767 770 772 775 778 782 784 786 787 788 789 791 793 794 796 797 798 800 802 803 804 805 805 806 808 809 811 812 813 814 815 816 817 819 820 820 821 821 821 822 823 823 824 824 825 825 826 826 826 827 828 828 828 829 830 830 829 828 827 827 827 825 824 825 824 823 823 823 824 824 822 822 823 822 819
732 736 738 741 745 749 752 756 759 761 764 766 769 771 775 778 780 782 784 785 786 788 789 791 791 793 795 796 798 799 800 800 801 803 804 805 807 809 810 811 812 813 814 815 816 816 817 818 818 819 819 820 820 821 821 821 822 822 822 823 824 824 825 826 826 826 826 825 823 824 824 821 821 822 822 820 821 821 820 821 821 820 821 819 815
729 733 735 739 743 746 750 753 756 758 760 763 765 767 770 773 776 778 780 781 783 784 785 786 786 789 791 792 793 795 795 796 798 799 800 802 804 806 807 809 809 810 811 811 812 813 814 815 815 815 816 816 817 817 817 817 817 818 818 819 820 821 821 822 822 822 822 821 820 819 819 818 817 818 818 817 817 818 818 819 819 818 817 815 812
727 730 733 737 740 743 747 749 752 755 757 759 762 764 767 769 771 774 776 778 780 780 781 781 782 785 787 788 789 790 791 793 794 796 797 798 800 803 804 806 807 807 807 808 808 809 810 811 812 811 812 812 813 814 814 813 813 814 814 815 816 816 816 817 817 818 818 818 816 814 815 815 813 812 814 814 814 816 816 815 814 813 812 810 807
724 727 730 733 736 739 743 745 748 750 753 755 758 760 762 764 766 769 772 774 775 776 776 777 778 780 782 783 785 787 787 789 790 792 793 795 797 799 801 803 804 804 804 804 805 805 806 808 808 807 808 809 810 810 810 810 810 810 810 810 809 809 810 811 812 813 814 814 812 809 809 811 809 807 810 812 812 812 812 810 808 807 805 803 801
720 723 725 728 732 735 738 741 744 746 748 751 754 755 757 759 762 765 767 769 770 770 771 773 774 775 777 780 782 782 783 785 787 788 790 791 794 797 798 800 800 800 800 801 801 802 803 804 804 803 804 805 806 806 806 807 806 806 806 805 804 804 803 804 807 808 808 808 807 804 804 805 805 804 807 808 807 807 806 804 802 801 800 798 796
716 719 721 725 728 731 734 737 739 741 744 746 749 751 753 755 757 760 762 763 765 766 767 768 769 771 773 776 777 778 779 781 783 784 786 788 791 793 795 796 796 796 796 797 798 799 799 800 800 800 800 801 802 802 803 803 803 803 801 800 800 799 797 799 802 803 802 802 802 800 799 800 801 801 802 803 803 803 802 799 797 797 795 792 789
712 715 718 721 724 726 729 731 733 736 738 741 743 746 748 750 752 755 757 759 760 760 761 762 764 766 769 771 772 773 774 776 778 780 782 785 788 789 790 791 792 792 792 793 794 795 795 795 796 796 796 796 797 798 799 800 800 799 798 797 796 793 792 796 799 798 797 797 796 795 795 795 796 796 797 798 798 798 798 794 791 791 791 787 782
709 712 714 717 719 721 724 726 728 731 733 736 738 740 742 745 747 749 752 753 753 754 756 757 760 761 763 765 767 768 769 771 774 776 778 781 783 785 786 787 787 787 787 788 790 790 790 791 792 792 792 792 793 794 795 796 795 794 794 793 791 787 789 794 795 792 792 791 790 790 790 789 790 791 791 792 793 794 792 787 784 785 784 780 777
706 708 710 712 714 716 719 721 723 726 728 731 733 735 737 739 742 744 746 747 748 750 752 754 755 756 758 760 763 765 766 767 770 772 774 777 779 780 782 783 782 782 783 784 785 785 786 786 787 788 787 788 789 789 791 792 791 790 791 790 786 783 786 790 789 787 787 786 785 785 784 784 785 785 785 786 787 786 784 779 778 779 776 772 773
702 704 706 708 710 712 714 717 719 721 723 726 728 730 732 735 738 740 742 743 745 746 748 749 751 752 755 757 759 761 762 764 766 768 770 772 774 776 778 778 777 778 779 780 780 780 781 781 782 783 783 783 784 785 786 787 786 786 786 786 782 780 783 785 784 784 784 782 781 781 779 778 780 780 780 781 780 778 775 772 770 769 768 769 772
700 702 704 705 707 709 711 713 715 717 719 721 723 726 728 731 733 735 737 739 741 742 744 745 747 749 751 753 755 757 758 760 762 764 766 768 770 772 773 772 772 774 775 775 776 776 776 777 777 778 779 779 779 780 781 782 782 782 781 781 779 778 780 781 780 781 781 779 777 777 775 774 775 775 774 775 774 771 766 762 760 760 760 761 763
697 699 700 702 704 706 708 710 712 714 716 718 720 723 725 727 730 731 734 736 737 739 740 742 744 746 748 750 752 753 755 757 758 760 762 764 766 767 768 767 769 771 771 771 771 772 772 773 773 774 775 775 775 776 777 778 779 778 777 777 777 777 777 778 777 777 777 775 774 773 771 770 770 769 769 771 768 762 757 754 752 752 751 751 751
695 695 696 698 700 702 704 706 708 711 713 715 717 719 721 723 726 728 730 732 734 735 737 739 741 743 745 747 748 750 751 753 754 756 757 759 761 762 763 764 766 767 766 766 767 768 768 769 770 771 772 772 773 774 774 775 775 774 773 774 774 774 775 774 773 773 772 771 770 768 766 765 764 763 766 767 761 754 751 751 750 748 747 746 747
693 693 693 694 696 697 699 702 704 706 708 711 713 715 717 720 722 724 726 728 730 732 734 736 739 740 742 743 744 746 748 749 750 752 753 755 757 758 759 760 762 762 762 762 764 765 766 767 768 769 769 770 771 771 771 772 772 771 771 771 772 772 771 770 770 769 768 767 766 765 762 761 759 759 761 761 756 751 750 749 747 746 745 743 743
691 691 691 692 693 694 696 698 699 702 704 707 709 712 714 717 718 720 723 724 727 729 731 733 735 736 738 740 741 743 744 745 747 748 750 752 753 754 756 757 758 759 759 760 762 763 764 765 766 766 767 768 768 768 768 769 769 769 769 769 769 769 768 767 767 766 765 764 763 761 759 758 757 757 756 755 752 751 748 744 741 740 739 737 736
689 689 690 690 691 692 693 695 697 699 701 704 706 708 711 713 714 717 719 721 723 725 727 730 732 733 735 737 738 740 741 743 744 745 747 749 750 751 753 754 755 756 757 758 759 760 761 762 763 764 765 765 766 766 766 766 766 766 766 766 765 765 765 765 764 763 762 761 760 758 756 755 755 754 753 751 749 746 744 740 737 734 733 731 729
689 688 688 689 689 690 691 692 694 697 699 702 704 706 708 710 712 714 716 718 721 723 725 727 729 731 732 734 735 737 738 740 741 743 744 746 747 748 750 751 752 753 754 755 756 757 758 760 761 762 763 763 764 764 764 764 764 764 764 764 763 763 763 762 762 761 760 759 757 755 753 752 751 750 749 747 744 740 739 737 733 728 727 726 723
688 688 688 688 688 689 690 691 693 695 697 700 702 704 706 708 710 711 713 715 718 720 722 724 725 727 729 731 733 735 736 737 738 740 742 743 744 745 747 748 749 750 751 752 754 755 757 758 759 760 760 761 761 762 762 762 762 761 761 761 761 761 760 760 759 759 758 757 755 753 750 749 747 746 744 742 739 736 734 732 728 724 722 721 717
688 688 688 687 687 688 690 691 692 693 695 697 700 702 704 706 708 709 711 713 715 717 719 721 722 724 726 728 730 732 733 734 736 738 739 741 742 743 744 745 746 747 749 750 752 754 755 756 757 758 758 759 759 759 759 759 759 759 759 759 758 758 757 757 757 756 755 754 752 750 748 746 744 742 740 738 734 732 730 728 725 721 718 716 711
687 687 687 687 687 688 689 690 691 692 693 695 697 700 702 704 706 708 710 712 714 716 717 719 721 722 724 726 728 729 730 732 734 736 737 739 740 741 742 743 744 746 748 749 751 752 753 754 755 756 757 757 757 757 758 757 757 757 757 756 756 755 755 755 754 753 752 751 749 747 745 743 740 738 736 734 730 728 726 724 721 718 714 710 704
686 686 687 687 687 687 688 689 691 692 694 695 697 699 702 704 706 708 709 711 713 715 716 718 719 721 723 724 725 727 729 731 732 734 736 738 739 740 741 743 744 746 747 748 750 751 753 754 754 755 756 756 756 756 756 756 756 755 755 755 755 754 754 753 752 751 750 749 747 745 742 740 738 735 733 730 727 723 721 718 716 713 709 705 700
686 686 686 686 687 687 688 689 691 692 694 696 698 699 701 704 707 709 710 711 712 714 716 717 718 720 722 723 724 726 728 730 732 734 735 737 739 740 741 742 744 745 747 748 749 751 752 753 754 755 755 755 755 756 756 756 756 755 755 755 754 754 754 753 752 751 749 748 746 744 741 738 736 733 731 728 724 720 716 713 711 707 704 700 695
686 686 686 687 687 688 688 690 691 693 694 696 698 700 701 702 705 708 711 712 713 714 715 717 718 719 721 723 725 726 728 731 733 734 736 737 739 740 741 742 744 745 746 747 748 750 752 753 754 754 755 755 755 755 756 756 756 756 756 756 755 754 754 753 752 750 749 747 745 743 740 737 734 731 728 725 721 717 712 708 705 702 699 694 690
686 686 687 687 688 688 689 690 692 693 695 697 698 700 701 702 704 706 709 712 714 715 717 718 719 720 721 723 725 726 729 731 733 734 736 737 739 741 742 743 744 746 747 748 749 750 752 753 754 754 754 755 755 756 756 756 756 756 756 756 756 755 754 753 752 750 748 746 744 741 739 736 733 730 726 722 718 714 709 704 700 696 693 690 686
687 687 687 688 688 689 690 691 692 694 695 697 699 700 702 703 705 707 709 711 713 716 719 721 722 722 724 725 727 728 730 733 735 736 737 738 740 742 743 744 745 746 747 749 749 751 752 753 753 754 754 755 756 756 756 757 757 757 756 756 755 755 754 752 751 750 747 745 743 740 738 735 732 729 725 721 716 711 705 700 695 691 688 685 682
687 688 688 689 690 691 691 692 693 694 695 697 699 701 702 704 706 708 710 712 715 717 720 722 724 726 727 729 730 731 733 735 737 739 740 741 741 742 743 744 746 747 748 750 751 752 752 753 754 754 755 755 756 756 757 757 756 756 756 755 755 754 753 752 751 749 747 745 742 740 737 734 730 727 724 720 715 709 703 697 692 687 683 680 677
688 689 689 690 691 692 693 694 695 696 697 698 700 702 704 706 708 709 712 714 716 719 722 725 727 728 730 733 734 735 735 737 739 741 742 743 743 744 744 745 746 748 749 751 752 752 753 754 754 755 755 756 756 756 756 756 756 755 755 755 754 754 753 751 750 748 746 744 742 739 736 733 730 727 724 720 714 708 702 696 690 684 679 676 674
690 690 690 691 692 693 695 696 698 699 700 701 702 704 706 708 710 712 714 717 719 722 725 727 729 731 732 735 737 738 738 739 741 742 744 745 745 746 746 747 748 749 751 752 753 753 753 754 754 755 755 755 756 756 756 755 755 755 755 754 754 753 752 750 749 748 746 744 742 739 736 734 731 728 725 721 715 709 702 697 691 684 678 674 672
692 692 693 693 694 695 697 699 700 701 703 705 706 707 709 711 713 715 718 720 722 724 727 729 732 734 735 737 739 740 740 741 742 744 745 746 747 748 748 749 750 751 752 753 753 753 754 754 754 755 755 755 755 755 755 755 755 755 754 754 753 752 750 749 748 747 746 744 741 739 737 734 731 728 724 721 716 710 704 698 693 686 681 677 673
694 694 695 696 697 698 700 701 702 703 705 708 709 710 711 714 717 719 721 723 725 727 730 731 733 736 738 740 741 741 741 742 744 745 746 747 748 749 750 751 752 752 753 753 754 754 754 754 755 755 755 755 755 755 755 755 755 755 754 753 752 750 749 748 747 746 745 743 741 739 737 734 731 728 724 720 716 711 706 701 696 691 687 682 676
695 696 697 698 699 700 702 703 705 706 707 709 711 712 714 716 719 721 724 726 728 730 732 734 735 737 739 741 742 742 742 743 745 747 748 749 750 751 752 752 753 753 754 754 754 754 755 755 755 755 755 755 755 755 755 755 755 755 754 752 751 750 749 748 747 745 744 743 741 739 736 733 730 728 725 721 717 713 708 704 700 696 692 685 680
697 698 699 700 701 702 703 706 708 709 710 711 713 715 717 719 721 723 725 728 731 733 734 735 737 738 739 741 742 742 743 745 746 748 749 750 751 751 752 753 754 754 754 755 755 755 756 755 755 755 755 755 755 755 755 756 755 754 753 752 751 750 749 748 746 745 744 743 741 738 736 733 730 728 725 722 719 715 711 706 704 700 695 690 688
699 700 702 703 704 704 706 708 710 712 714 715 717 718 720 721 724 726 728 730 733 735 736 737 739 739 740 742 743 743 744 746 747 748 749 750 751 752 753 753 754 755 755 755 756 756 756 755 755 755 755 755 755 756 756 756 755 754 753 752 751 751 750 749 748 746 745 743 741 738 735 733 730 728 726 723 720 717 714 711 708 705 702 699 699
703 704 705 706 707 709 710 711 713 715 718 719 720 722 724 725 727 729 731 733 735 737 739 740 741 741 743 744 744 745 746 747 748 749 750 751 751 752 753 753 754 754 755 755 755 755 755 755 755 755 755 756 756 756 756 755 754 753 753 752 751 751 750 750 749 748 746 744 741 738 736 733 730 728 727 725 722 719 717 715 713 711 708 706 705
708 710 710 711 712 713 714 714 715 718 721 722 724 726 728 729 731 733 735 737 738 739 742 743 744 744 745 746 746 748 749 749 750 751 751 752 752 753 753 754 754 754 754 754 755 755 755 755 755 755 755 755 755 755 754 753 753 752 752 752 751 750 750 749 749 748 747 745 742 739 736 734 731 729 728 726 724 721 720 718 717 716 714 712 711
710 713 715 717 718 719 719 719 719 720 722 725 727 729 731 733 735 737 739 740 741 742 744 746 746 747 747 748 749 750 751 751 751 752 752 753 753 753 754 754 754 754 754 754 754 754 754 754 754 754 754 754 754 753 752 751 751 751 750 750 750 749 749 748 748 747 746 744 742 740 737 735 732 730 729 727 725 723 722 721 720 719 717 716 716
713 715 718 721 723 725 725 725 723 724 725 727 730 732 735 736 738 740 741 742 744 745 747 748 749 749 750 751 751 752 752 752 753 753 754 754 754 755 755 755 755 755 755 754 754 754 754 754 754 753 753 753 752 751 751 750 750 749 749 749 748 748 748 747 746 745 744 743 741 739 737 735 733 731 730 728 726 725 723 722 721 721 720 719 719
718 718 721 724 727 729 731 731 730 730 731 731 733 736 739 740 741 742 744 745 746 748 749 750 751 752 752 753 753 753 754 754 754 754 755 755 755 756 756 756 756 756 756 755 755 754 754 753 753 752 752 751 750 749 749 748 748 748 747 747 747 746 746 745 744 744 742 741 740 738 736 735 733 731 730 728 727 726 724 723 722 722 721 721 720
724 724 724 727 730 733 735 735 736 737 737 737 738 740 742 744 745 746 748 749 750 751 752 752 753 754 754 754 755 755 755 755 755 756 756 757 757 758 758 757 757 757 756 756 756 755 754 754 753 752 751 750 749 748 747 747 746 746 746 745 745 744 744 743 742 741 740 739 738 736 735 733 732 730 729 728 727 726 725 724 724 723 722 722 722
729 729 729 731 733 735 737 739 741 743 743 744 744 745 747 748 750 751 751 752 753 754 754 754 755 755 756 756 757 757 757 757 758 758 758 759 759 759 759 759 759 758 757 757 756 755 754 754 753 752 751 751 749 748 747 746 746 745 744 743 743 742 741 740 739 738 737 736 735 734 733 732 731 730 728 727 726 726 725 724 724 723 723 723 723
734 734 734 735 736 737 739 743 747 748 749 749 750 751 753 754 754 755 755 755 756 756 757 757 758 758 758 759 760 760 760 760 760 761 761 761 761 761 760 760 760 759 758 758 757 756 756 755 753 752 752 751 750 749 748 747 746 745 744 743 742 741 739 738 737 736 735 734 733 732 731 730 729 728 727 726 725 725 725 724 723 722 722 723 723